Location: Street
(51.1247°N, 2.7429°W)
Time: 08:22:52
(UTC+01:00)

PCSat - Pass Details

Date: 03 April 2023
Orbit: 783 x 794 km, 67.1° (Epoch: 29 May)

Event Time Altitude Azimuth Distance (km) Brightness Sun altitude
Rises 01:16:37 0° 318° (NW) 3,303 13.4 -33.7°
Reaches altitude 10° 01:19:11 10° 310° (NW) 2,370 12.4 -33.7°
Enters shadow 01:21:03 20° 299° (WNW) 1,767 11.6 -33.7°
